Hourly Weather Porto-Novo

Today, 4 August, Tuesday

Time Temperature Precipitation Wind Pressure Humidity
00:00 +25°C° 0 mm 4 mps 761 mmHg 84%
01:00 +25°C° 0 mm 5 mps 761 mmHg 83%
02:00 +25°C° 0 mm 5 mps 760 mmHg 82%
03:00 +25°C° 0 mm 5 mps 760 mmHg 81%
04:00 +25°C° 0 mm 5 mps 760 mmHg 81%
05:00 +25°C° 0 mm 4 mps 761 mmHg 80%
06:00 +25°C° 0 mm 4 mps 761 mmHg 79%
07:00 +26°C° 0 mm 4 mps 761 mmHg 76%
08:00 +27°C° 0 mm 4 mps 762 mmHg 72%
09:00 +28°C° 0 mm 4 mps 762 mmHg 69%
10:00 +28°C° 0 mm 4 mps 762 mmHg 66%
11:00 +29°C° 0 mm 4 mps 761 mmHg 64%
12:00 +30°C° 0 mm 4 mps 761 mmHg 61%
13:00 +30°C° 0 mm 4 mps 760 mmHg 62%
14:00 +30°C° 0 mm 5 mps 760 mmHg 63%
15:00 +29°C° 0 mm 5 mps 759 mmHg 64%
16:00 +28°C° 0 mm 4 mps 759 mmHg 68%
17:00 +27°C° 0 mm 4 mps 759 mmHg 73%
18:00 +26°C° 0 mm 4 mps 759 mmHg 77%
19:00 +25°C° 0 mm 4 mps 760 mmHg 80%
20:00 +25°C° 0 mm 3 mps 760 mmHg 83%
21:00 +24°C° 0 mm 3 mps 760 mmHg 86%
22:00 +24°C° 0 mm 3 mps 760 mmHg 87%
23:00 +24°C° 0 mm 3 mps 761 mmHg 88%

Tomorrow, 5 August, Wednesday

Time Temperature Precipitation Wind Pressure Humidity
00:00 +24°C° 0 mm 3 mps 761 mmHg 89%
01:00 +24°C° 0 mm 3 mps 760 mmHg 89%
02:00 +24°C° 0 mm 3 mps 760 mmHg 89%
03:00 +24°C° 0 mm 3 mps 760 mmHg 90%
04:00 +24°C° 0 mm 3 mps 760 mmHg 90%
05:00 +22°C° 0 mm 3 mps 760 mmHg 91%
06:00 +22°C° 0 mm 3 mps 761 mmHg 92%
07:00 +25°C° 0 mm 3 mps 761 mmHg 85%
08:00 +26°C° 0 mm 4 mps 761 mmHg 78%
09:00 +27°C° 0 mm 4 mps 762 mmHg 72%
10:00 +28°C° 0 mm 5 mps 761 mmHg 67%
11:00 +29°C° 0 mm 5 mps 761 mmHg 63%
12:00 +30°C° 0 mm 5 mps 761 mmHg 59%
13:00 +30°C° 0 mm 5 mps 760 mmHg 60%
14:00 +30°C° 0 mm 6 mps 759 mmHg 61%
15:00 +29°C° 0 mm 6 mps 759 mmHg 62%
16:00 +28°C° 0 mm 6 mps 759 mmHg 67%
17:00 +27°C° 0 mm 5 mps 759 mmHg 73%
18:00 +26°C° 0 mm 5 mps 759 mmHg 78%
19:00 +25°C° 0 mm 5 mps 759 mmHg 80%
20:00 +25°C° 0 mm 5 mps 760 mmHg 81%
21:00 +25°C° 0 mm 4 mps 760 mmHg 83%
22:00 +25°C° 0 mm 5 mps 760 mmHg 83%
23:00 +25°C° 0 mm 5 mps 761 mmHg 83%

Day after tomorrow, 6 August, Thursday

Time Temperature Precipitation Wind Pressure Humidity
00:00 +25°C° 0 mm 5 mps 761 mmHg 84%
01:00 +25°C° 0 mm 5 mps 760 mmHg 82%
02:00 +25°C° 0 mm 5 mps 760 mmHg 80%
03:00 +25°C° 0 mm 5 mps 760 mmHg 78%
04:00 +25°C° 0 mm 5 mps 760 mmHg 79%
05:00 +25°C° 0 mm 5 mps 760 mmHg 79%
06:00 +25°C° 0 mm 5 mps 760 mmHg 79%
07:00 +26°C° 0 mm 5 mps 761 mmHg 77%
08:00 +26°C° 0 mm 5 mps 761 mmHg 74%
09:00 +27°C° 0 mm 5 mps 762 mmHg 72%
10:00 +27°C° 0 mm 5 mps 761 mmHg 69%
11:00 +28°C° 0 mm 5 mps 761 mmHg 67%
12:00 +28°C° 0 mm 6 mps 761 mmHg 64%
13:00 +28°C° 0 mm 6 mps 760 mmHg 63%
14:00 +28°C° 0 mm 6 mps 760 mmHg 62%
15:00 +28°C° 0 mm 6 mps 759 mmHg 62%
16:00 +27°C° 0 mm 5 mps 759 mmHg 66%
17:00 +26°C° 0 mm 5 mps 759 mmHg 70%
18:00 +25°C° 0 mm 4 mps 759 mmHg 74%
19:00 +25°C° 0 mm 4 mps 760 mmHg 77%
20:00 +25°C° 0 mm 4 mps 761 mmHg 79%
21:00 +23°C° 0 mm 4 mps 761 mmHg 81%
22:00 +23°C° 0 mm 4 mps 761 mmHg 81%
23:00 +23°C° 0 mm 4 mps 761 mmHg 81%

7 August, Friday

Time Temperature Precipitation Wind Pressure Humidity
00:00 +23°C° 0 mm 4 mps 761 mmHg 82%
01:00 +23°C° 0 mm 4 mps 761 mmHg 82%
02:00 +23°C° 0 mm 4 mps 760 mmHg 82%
03:00 +23°C° 0 mm 4 mps 760 mmHg 83%
04:00 +23°C° 0 mm 4 mps 760 mmHg 82%
05:00 +25°C° 0 mm 4 mps 760 mmHg 81%
06:00 +25°C° 0 mm 5 mps 760 mmHg 80%
07:00 +25°C° 0 mm 5 mps 761 mmHg 77%
08:00 +26°C° 0 mm 5 mps 761 mmHg 73%
09:00 +27°C° 0 mm 5 mps 762 mmHg 70%
10:00 +27°C° 0 mm 5 mps 762 mmHg 68%
11:00 +28°C° 0 mm 5 mps 761 mmHg 65%
12:00 +28°C° 0 mm 5 mps 761 mmHg 63%
13:00 +28°C° 0 mm 5 mps 761 mmHg 62%
14:00 +29°C° 0 mm 5 mps 760 mmHg 61%
15:00 +29°C° 0 mm 5 mps 760 mmHg 60%
16:00 +28°C° 0 mm 4 mps 760 mmHg 64%
17:00 +27°C° 0 mm 4 mps 760 mmHg 68%
18:00 +26°C° 0 mm 3 mps 760 mmHg 71%
19:00 +26°C° 0 mm 3 mps 761 mmHg 75%
20:00 +25°C° 0 mm 3 mps 761 mmHg 79%
21:00 +25°C° 0 mm 3 mps 761 mmHg 83%
22:00 +24°C° 0 mm 3 mps 761 mmHg 84%
23:00 +24°C° 0 mm 3 mps 761 mmHg 85%

8 August, Saturday

Time Temperature Precipitation Wind Pressure Humidity
00:00 +24°C° 0 mm 3 mps 761 mmHg 87%
01:00 +24°C° 0 mm 3 mps 760 mmHg 87%
02:00 +24°C° 0 mm 3 mps 760 mmHg 87%
03:00 +24°C° 0 mm 3 mps 760 mmHg 88%
04:00 +24°C° 0 mm 3 mps 760 mmHg 88%
05:00 +24°C° 0 mm 2 mps 760 mmHg 89%
06:00 +24°C° 0 mm 2 mps 761 mmHg 89%
07:00 +25°C° 0.1 mm 3 mps 761 mmHg 83%
08:00 +27°C° 0.1 mm 3 mps 762 mmHg 78%
09:00 +28°C° 0.1 mm 4 mps 762 mmHg 72%
10:00 +28°C° 0.1 mm 4 mps 762 mmHg 70%
11:00 +29°C° 0.1 mm 5 mps 761 mmHg 67%
12:00 +29°C° 0.1 mm 5 mps 761 mmHg 64%
13:00 +29°C° 0 mm 5 mps 760 mmHg 63%
14:00 +29°C° 0 mm 5 mps 760 mmHg 63%
15:00 +29°C° 0 mm 5 mps 759 mmHg 62%
16:00 +28°C° 0 mm 5 mps 759 mmHg 66%
17:00 +27°C° 0 mm 4 mps 760 mmHg 71%
18:00 +26°C° 0 mm 4 mps 760 mmHg 75%
19:00 +26°C° 0 mm 4 mps 760 mmHg 77%
20:00 +25°C° 0 mm 4 mps 761 mmHg 79%
21:00 +25°C° 0 mm 3 mps 761 mmHg 82%
22:00 +25°C° 0 mm 3 mps 761 mmHg 83%
23:00 +25°C° 0 mm 3 mps 761 mmHg 83%

9 August, Sunday

Time Temperature Precipitation Wind Pressure Humidity
00:00 +24°C° 0 mm 3 mps 761 mmHg 84%
01:00 +24°C° 0 mm 3 mps 761 mmHg 85%
02:00 +24°C° 0 mm 3 mps 760 mmHg 85%
03:00 +24°C° 0 mm 3 mps 760 mmHg 86%
04:00 +24°C° 0 mm 2 mps 760 mmHg 88%
05:00 +23°C° 0 mm 2 mps 760 mmHg 90%
06:00 +23°C° 0 mm 2 mps 761 mmHg 91%
07:00 +25°C° 0.1 mm 2 mps 761 mmHg 84%
08:00 +27°C° 0.1 mm 2 mps 761 mmHg 76%
09:00 +28°C° 0.1 mm 3 mps 762 mmHg 68%
10:00 +29°C° 0 mm 3 mps 761 mmHg 65%
11:00 +29°C° 0 mm 3 mps 761 mmHg 62%
12:00 +30°C° 0 mm 4 mps 760 mmHg 59%
13:00 +30°C° 0 mm 4 mps 759 mmHg 59%
14:00 +30°C° 0 mm 4 mps 759 mmHg 59%
15:00 +30°C° 0 mm 4 mps 758 mmHg 59%
16:00 +29°C° 0 mm 4 mps 758 mmHg 65%
17:00 +27°C° 0 mm 4 mps 758 mmHg 70%
18:00 +26°C° 0 mm 4 mps 758 mmHg 76%
19:00 +26°C° 0 mm 4 mps 759 mmHg 79%
20:00 +25°C° 0 mm 4 mps 759 mmHg 81%
21:00 +25°C° 0 mm 4 mps 760 mmHg 84%
22:00 +25°C° 0 mm 4 mps 760 mmHg 85%
23:00 +25°C° 0 mm 4 mps 760 mmHg 86%
Show more